Regional Weather Roundup
Issued by NWS

Home | Current Version | Previous Version | Graphics & Text | Print | Product List | Glossary Off
Versions: 1 2 3 4 5 6 7 8 9 10 11 12 13 14 15 16 17 18 19 20 21 22 23 24 25 26 27 28 29 30 31 32 33 34 35 36 37 38 39 40 41 42 43 44 45 46 47 48 49 50

000
ASUS43 KMKX 291959
RWRWI

WISCONSIN REGIONAL WEATHER ROUNDUP
NATIONAL WEATHER SERVICE MILWAUKEE/SULLIVAN WI
300 PM CDT SUN MAR 29 2015

NOTE: "FAIR" INDICATES FEW OR NO CLOUDS BELOW 12,000 FEET WITH NO
SIGNIFICANT WEATHER AND/OR OBSTRUCTIONS TO VISIBILITY.

WIZ001-002-006>008-014>016-023>028-292100-
NORTHWEST WISCONSIN

CITY           SKY/WX    TMP DP  RH WIND       PRES   REMARKS
SUPERIOR ARPT  CLOUDY    42  36  77 NW23G33   29.61R
ASHLAND        CLOUDY    38  35  89 W10G21    29.55R WCI  31
HAYWARD        LGT RAIN  37  34  89 MISG      29.59R
SIREN          CLOUDY    41  35  79 NW24G31   29.66R
CUMBERLAND     CLOUDY    37  34  87 NW12G20   29.63R WCI  30
RICE LAKE      CLOUDY    38  35  89 W14G21    29.64R WCI  29
CHETEK         CLOUDY    37  36  96 W10G17    29.62R WCI  29
LADYSMITH      RAIN      36  35  96 W17G24    29.58R WCI  26
EAU CLAIRE     CLOUDY    40  36  86 NW18G26   29.64R WCI  31
MENOMONIE      CLOUDY    40  37  87 W17G24    29.66R WCI  31
NEW RICHMOND   PTSUNNY   45  40  82 NW21G33   29.68R
OSCEOLA        CLOUDY    47  38  72 NW18G29   29.71R
$$

WIZ003>005-009-010-017-018-292100-
NORTH CENTRAL WISCONSIN

CITY           SKY/WX    TMP DP  RH WIND       PRES   REMARKS
MANITOWISH WTR LGT SNOW  32  32 100 W7        29.47S WCI  26
ARBOR VITAE    LGT SNOW  34  32  93 SW8       29.47S WCI  27
WOODRUFF       LGT SNOW  34  32  93 SW8       29.47S WCI  27
RHINELANDER    LGT SNOW  33  31  92 SW12      29.48F FOG     WCI  24
EAGLE RIVER    LGT SNOW  32  30  91 SW12G17   29.45F VSB 1   WCI  23
LAND O LAKES   SNOW      33  32  96 SW7       29.45F VSB 1/2 WCI  27
PHILLIPS       CLOUDY    33  32  97 W7        29.51R WCI  27
TOMAHAWK       LGT SNOW  33  32  96 CALM      29.50F
MEDFORD        LGT RAIN  35  34  97 W10       29.52S WCI  27
MERRILL        LGT SNOW  33  33 100 SW9       29.51F WCI  26
$$

WIZ029-030-035-036-043>047-292100-
CENTRAL WISCONSIN

CITY           SKY/WX    TMP DP  RH WIND       PRES   REMARKS
WAUSAU         CLOUDY    35  34  96 SW13      29.50F FOG     WCI  26
MOSINEE        RAIN      36  36 100 SW12      29.53F WCI  27
MARSHFIELD     LGT RAIN  40  37  89 W17G30    29.54F FOG     WCI  31
STEVENS POINT  DRIZZLE   34  33  95 SW12G17   29.55F WCI  26
WAUPACA        CLOUDY    38  33  84 SW18G32   29.58F WCI  28
WAUTOMA        NOT AVBL
WISC RAPIDS    LGT RAIN  38  35  89 SW12      29.57F FOG     WCI  30
CAMP DOUGLAS   NOT AVBL
$$

WIZ011>013-019>022-031-037>040-048>050-292100-
NORTHEAST WISCONSIN

CITY           SKY/WX    TMP DP  RH WIND       PRES   REMARKS
ANTIGO         CLOUDY    32  32  99 SW12      29.50F FOG     WCI  23
SHAWANO        DRIZZLE   36  33  90 SW10      29.55F WCI  28
OCONTO         CLOUDY    33  33  99 SW12G21   29.57F WCI  24
STURGEON BAY   CLOUDY    34  28  80 SW17G28   29.59F WCI  23
GREEN BAY      CLOUDY    36  32  85 SW20G29   29.57  WCI  25
MANITOWOC      CLOUDY    34  34 100 SW17      29.64F WCI  23
APPLETON       CLOUDY    34  32  93 SW21G28   29.59F WCI  22
CLINTONVILLE   CLOUDY    34  32  93 SW10G23   29.56F WCI  26
OSHKOSH        CLOUDY    36  31  82 SW24G38   29.59F WCI  24
$$

WIZ032>034-041-042-053>061-292100-
SOUTHWEST WISCONSIN

CITY           SKY/WX    TMP DP  RH WIND       PRES   REMARKS
LA CROSSE      CLOUDY    46  36  68 W22G29    29.67R
SPARTA         DRIZZLE   43  39  85 W18G28    29.62S
VIROQUA        CLOUDY    44  42  92 W24G35    29.63R
BOSCOBEL       CLOUDY    48  39  71 SW10      29.68F
PRAIRIE DU CHI CLOUDY    51  38  62 W24G31    29.69F
PLATTEVILLE    CLOUDY    46  42  88 S22       29.71F
$$

WIZ056-057-062-063-064-067-068-292100-
SOUTH CENTRAL WISCONSIN

CITY           SKY/WX    TMP DP  RH WIND       PRES   REMARKS
REEDSBURG      CLOUDY    40  36  87 S14G21    29.62F WCI  32
BARABOO/DELLS  CLOUDY    38  34  86 S16       29.63F WCI  29
LONE ROCK      CLOUDY    43  36  76 SW12      29.67F
MINERAL POINT  CLOUDY    41  37  87 S16       29.68F
MADISON        CLOUDY    37  33  85 S15G23    29.68F WCI  28
MIDDLETON      CLOUDY    38  34  85 SW12G22   29.69F WCI  31
WATERTOWN      CLOUDY    34  33  94 SW21G28   29.71F WCI  22
MONROE         CLOUDY    36  36 100 S20       29.73F WCI  25
JANESVILLE     NOT AVBL
$$

WIZ051-052-058>065-066-070>072-292100-
SOUTHEAST WISCONSIN

CITY           SKY/WX    TMP DP  RH WIND       PRES   REMARKS
MILWAUKEE      CLOUDY    38  29  70 SW32G41   29.74F WCI  25
WAUKESHA       CLOUDY    34  28  80 S17G38    29.74F WCI  23
MILWAUKEE/TIMM NOT AVBL
RACINE         CLOUDY    38  30  73 SW21G39   29.77F WCI  28
BURLINGTON     CLOUDY    34  29  83 SW26G37   29.77F WCI  21
KENOSHA        CLOUDY    37  30  75 SW18G31   29.77F WCI  27
FOND DU LAC    CLOUDY    36  30  79 SW26G37   29.63F WCI  24
SHEBOYGAN      CLOUDY    35  31  85 SW23G33   29.66F WCI  23
WEST BEND      CLOUDY    34  30  86 SW26G32   29.69F WCI  21
JUNEAU         LGT RAIN  33  31  92 S17G23    29.71F WCI  22
$$

LSZ147-162-292100-
LAKE SUPERIOR

STATION/POSITION TIME  TEMP    WIND        PRES    WAVE
                       AIR SEA DIR/SP/G            HT/PER
                 (UTC) (F)     (DEG/KT/KT) (MB)    (FT/S)
DEVILS ISLAND    1900   34     250/ 23/ 25  998.8R
PORT WING        1900   37     260/ 14/ 19 1000.7
SAXON HARBOR     1900   35     230/  6/ 13  999.0R
$$

LMZ867-665-643>646-292100-
LAKE MICHIGAN

STATION/POSITION TIME  TEMP    WIND        PRES    WAVE
                       AIR SEA DIR/SP/G            HT/PER
                 (UTC) (F)     (DEG/KT/KT) (MB)    (FT/S)
SISTER BAY       1732   32     180/ 14/ 17   N/A
KEWAUNEE LAKESHO 1900          200/ 15/ 21   N/A
SHEBOYGAN LAKESH 1900   35     200/ 23/ 27 1006.3F
PORT WASHINGTON  1922   36     210/ 15/ 24 1007.1F
MILWAUKEE LAKESH 1900   35     210/ 24/ 35   N/A
KENOSHA   LAKESH 1900   35     210/ 18/ 27 1009.8F
$$

TC  - TEMPERATURE IN CELSIUS
VSB - VISIBILITY IN STATUTE MILES
WCI - WIND CHILL INDEX
HX  - HEAT INDEX




USA.gov is the U.S. government's official web portal to all federal, state and local government web resources and services.